Location: Pasadena-CA
(34.1440°N, 118.1100°W)
Time: 23:31:25
(UTC-07:00)

Oscar 19 - Pass Details

Date: 01 July 2022
Orbit: 773 x 790 km, 98.8° (Epoch: 14 August)

Event Time Altitude Azimuth Distance (km) Brightness Sun altitude
Rises 03:30:31 0° 27° (NNE) 3,253 15.3 -22.0°
Reaches altitude 10° 03:33:10 10° 40° (NE) 2,322 14.3 -21.7°
Maximum altitude 03:37:27 27° 97° (E) 1,463 12.4 -21.1°
Enters shadow 03:41:43 10° 154° (SSE) 2,311 12.9 -20.6°
